Le nostre stazioni meteo in Italia

Pubblicità
Il mio iltempo24.it
Forli, Italia (16147): Temperatura & dewpoint: 15.04.2019 09:00:00 - 21.04.2019 09:00:00 (CEST)Forli, Italia (16147): velocità del vento: 15.04.2019 09:00:00 - 21.04.2019 09:00:00 (CEST)Forli, Italia (16147): direzione del vento: 15.04.2019 09:00:00 - 21.04.2019 09:00:00 (CEST)Forli, Italia (16147): reduced air pressure: 15.04.2019 09:00:00 - 21.04.2019 09:00:00 (CEST)Forli, Italia (16147): visibility: 15.04.2019 09:00:00 - 21.04.2019 09:00:00 (CEST)Forli, Italia (16147): precipitazioni: 15.04.2019 09:00:00 - 21.04.2019 09:00:00 (CEST)
Data & Tempo tt [°C] td [°C] ff [km/h] ff [kn] dd ppp [hPa] vv [km] rr [mm]
21.04.2019 09:00:00 - - - - - - - -
21.04.2019 08:00:00 10,3 4,0 3 2 OSO 1019,9 - 0,0
21.04.2019 07:00:00 9,6 3,6 2 1 SSO 1019,9 - 0,0
21.04.2019 06:00:00 10,2 3,7 0 0 OSO 1019,9 - 0,0
21.04.2019 05:00:00 10,2 3,9 3 1 S 1020,3 - 0,0
21.04.2019 04:00:00 10,9 4,1 3 1 S 1020,7 - 0,0
21.04.2019 03:00:00 11,1 4,1 6 4 S 1020,9 - 0,0
21.04.2019 02:00:00 11,5 4,5 3 2 SSO 1021,4 - 0,0
21.04.2019 01:00:00 12,1 4,8 4 2 SSO 1021,8 - 0,0
21.04.2019 00:00:00 12,8 5,2 3 2 SO 1021,8 - 0,0
20.04.2019 23:00:00 14,0 5,6 1 1 SSE 1022,0 - 0,0
20.04.2019 22:00:00 15,3 6,3 0 0 SO 1021,8 - 0,0
20.04.2019 21:00:00 16,9 7,3 1 1 SE 1021,8 - 0,0
20.04.2019 20:00:00 18,3 5,5 4 2 E 1021,6 - 0,0
20.04.2019 19:00:00 19,4 3,5 10 5 E 1021,5 - 0,0
20.04.2019 18:00:00 20,5 2,3 13 7 E 1021,9 - 0,0
20.04.2019 17:00:00 20,9 2,2 13 7 E 1022,0 - 0,0
20.04.2019 16:00:00 21,6 2,3 11 6 E 1022,6 - 0,0
20.04.2019 15:00:00 21,5 2,7 10 5 E 1023,2 - 0,0
20.04.2019 14:00:00 20,9 2,7 9 5 ENE 1023,8 - 0,0
20.04.2019 13:00:00 19,9 2,3 9 5 N 1024,2 - 0,0
20.04.2019 12:00:00 19,1 2,0 6 3 N 1024,8 - 0,0
20.04.2019 11:00:00 17,8 2,9 5 3 ONO 1025,2 - 0,0
20.04.2019 10:00:00 15,8 3,9 6 4 NO 1025,5 - 0,0
20.04.2019 09:00:00 14,5 3,6 0 0 SSO 1025,4 - 0,0
20.04.2019 08:00:00 10,3 3,1 2 1 SO 1025,2 - 0,0
20.04.2019 07:00:00 8,4 2,8 5 3 SO 1025,1 - 0,0
20.04.2019 06:00:00 8,0 2,9 6 3 SO 1025,0 - 0,0
20.04.2019 05:00:00 8,3 3,4 3 1 SO 1024,9 - 0,0
20.04.2019 04:00:00 8,7 3,5 4 2 SO 1025,1 - 0,0
20.04.2019 03:00:00 8,7 3,9 4 2 SSO 1025,2 - 0,0
20.04.2019 02:00:00 9,4 4,2 2 1 OSO 1025,7 - 0,0
20.04.2019 01:00:00 10,2 4,1 5 3 S 1025,8 - 0,0
20.04.2019 00:00:00 10,9 4,4 6 4 S 1025,8 - 0,0
19.04.2019 23:00:00 11,6 4,8 5 3 S 1025,8 - 0,0
19.04.2019 22:00:00 13,6 5,0 4 2 SO 1025,8 - 0,0
19.04.2019 21:00:00 15,4 5,0 4 2 ESE 1025,6 - 0,0
19.04.2019 20:00:00 16,7 4,4 6 3 E 1025,2 - 0,0
19.04.2019 19:00:00 17,9 3,0 9 5 E 1025,1 - 0,0
19.04.2019 18:00:00 18,8 2,2 8 4 E 1025,3 10 0,0
19.04.2019 17:00:00 18,9 2,3 8 4 E 1025,4 10 0,0
19.04.2019 16:00:00 19,1 2,0 9 5 E 1025,8 10 0,0
19.04.2019 15:00:00 19,2 2,5 5 3 - 1026,3 10 0,0
19.04.2019 14:00:00 18,9 4,3 8 4 NE 1026,5 10 0,0
19.04.2019 13:00:00 18,5 5,0 0 0 N 1026,8 10 0,0
19.04.2019 12:00:00 17,7 5,9 2 1 - 1027,2 10 0,0
19.04.2019 11:00:00 16,2 6,6 5 3 - 1027,6 10 0,0
19.04.2019 10:00:00 14,6 6,9 4 2 - 1027,4 10 0,0
19.04.2019 09:00:00 12,7 5,8 7 4 ONO 1026,8 - 0,0
19.04.2019 08:00:00 9,7 5,1 4 2 SO 1026,6 - 0,0
19.04.2019 07:00:00 7,9 4,3 5 3 OSO 1026,3 - 0,0
19.04.2019 06:00:00 8,2 4,2 - - - 1025,8 - 0,0
19.04.2019 05:00:00 8,0 4,0 4 2 SSO 1025,7 - 0,0
19.04.2019 04:00:00 8,1 3,7 4 2 SO 1025,6 - 0,0
19.04.2019 03:00:00 8,4 3,8 5 3 OSO 1025,4 - 0,0
19.04.2019 02:00:00 9,6 4,0 0 0 SSO 1025,3 - 0,0
19.04.2019 01:00:00 9,9 4,3 2 1 SSO 1025,2 - 0,0
19.04.2019 00:00:00 11,0 4,2 4 2 SSO 1024,8 - 0,0
18.04.2019 23:00:00 12,0 5,2 3 1 SO 1024,2 - 0,0
18.04.2019 22:00:00 14,2 6,5 2 1 E 1023,9 - 0,0
18.04.2019 21:00:00 15,0 6,3 2 1 ESE 1023,4 - 0,0
18.04.2019 20:00:00 15,8 5,7 6 3 E 1022,6 - 0,0
18.04.2019 19:00:00 17,0 3,3 14 8 E 1022,3 - 0,0
18.04.2019 18:00:00 18,0 1,9 11 6 ENE 1021,9 10 0,0
18.04.2019 17:00:00 18,4 1,8 11 6 E 1021,9 10 0,0
18.04.2019 16:00:00 18,6 1,1 11 6 NNE 1021,9 10 0,0
18.04.2019 15:00:00 18,3 4,5 8 4 ENE 1021,9 10 0,0
18.04.2019 14:00:00 18,4 1,8 9 5 NE 1022,1 10 0,0
18.04.2019 13:00:00 18,0 3,8 4 2 - 1022,2 10 0,0
18.04.2019 12:00:00 17,4 4,4 4 2 - 1022,3 10 0,0
18.04.2019 11:00:00 16,3 4,0 2 1 - 1022,3 10 0,0
18.04.2019 10:00:00 15,1 4,2 0 0 N 1022,3 10 0,0
18.04.2019 09:00:00 12,3 3,8 1 0 NO 1022,3 - 0,0
18.04.2019 08:00:00 8,7 3,1 4 2 SSO 1022,0 - 0,0
18.04.2019 07:00:00 8,6 3,2 3 1 S 1021,3 - 0,0
18.04.2019 06:00:00 8,5 3,1 6 3 S 1020,7 - 0,0
18.04.2019 05:00:00 8,8 3,8 - - - 1020,8 - 0,0
18.04.2019 04:00:00 9,5 4,3 - - - 1020,7 - 0,0
18.04.2019 03:00:00 9,8 4,6 8 5 SSE 1020,3 - 0,0
18.04.2019 02:00:00 10,6 4,7 7 4 SSO 1020,1 - 0,0
18.04.2019 01:00:00 10,9 5,0 6 4 S 1019,9 - 0,0
18.04.2019 00:00:00 11,7 5,3 4 2 S 1019,4 - 0,0
17.04.2019 23:00:00 12,8 5,2 6 3 S 1018,9 - 0,0
17.04.2019 22:00:00 14,0 5,6 6 4 SSO 1018,7 - 0,0
17.04.2019 21:00:00 16,3 3,7 5 3 SE 1018,0 - 0,0
17.04.2019 20:00:00 17,8 3,7 6 3 ESE 1017,3 - 0,0
17.04.2019 19:00:00 18,9 3,5 7 4 E 1017,0 - 0,0
17.04.2019 18:00:00 19,6 4,1 5 3 - 1017,2 10 0,0
17.04.2019 17:00:00 19,8 3,9 0 0 N 1017,1 10 0,0
17.04.2019 16:00:00 19,8 4,7 9 5 E 1017,2 10 0,0
17.04.2019 15:00:00 19,6 2,0 4 2 - 1017,6 10 0,0
17.04.2019 14:00:00 19,5 2,4 2 1 - 1017,9 10 0,0
17.04.2019 13:00:00 19,0 3,6 0 0 N 1018,2 10 0,0
17.04.2019 12:00:00 17,9 3,7 5 3 - 1018,4 10 0,0
17.04.2019 11:00:00 16,8 4,8 8 4 ONO 1018,6 10 0,0
17.04.2019 10:00:00 15,2 5,0 8 4 NNO - 10 0,0
17.04.2019 09:00:00 13,3 5,5 1 1 SSO 1018,2 - 0,0
17.04.2019 08:00:00 10,3 4,2 1 1 SSO 1018,0 - 0,0
17.04.2019 07:00:00 8,4 3,8 5 3 SSO 1017,7 - 0,0
17.04.2019 06:00:00 8,7 3,9 2 1 SO 1017,3 - 0,0
17.04.2019 05:00:00 8,9 3,9 4 2 S 1017,2 - 0,0
17.04.2019 04:00:00 9,0 3,8 1 1 SSO 1017,2 - 0,0
17.04.2019 03:00:00 9,6 3,6 7 4 S 1017,2 - 0,0
17.04.2019 02:00:00 10,1 3,4 7 4 S 1017,3 - 0,0
17.04.2019 01:00:00 9,9 3,4 2 1 S 1017,3 - 0,0
17.04.2019 00:00:00 10,7 3,7 1 0 SSE 1017,3 - 0,0
16.04.2019 23:00:00 11,9 2,9 0 0 S 1017,3 - 0,0
16.04.2019 22:00:00 12,7 3,1 3 1 SSO 1017,4 - 0,0
16.04.2019 21:00:00 14,4 0,6 - - - 1017,1 - 0,0
16.04.2019 20:00:00 15,2 -0,2 5 3 ESE 1016,7 - 0,0
16.04.2019 19:00:00 16,1 -0,6 7 4 ESE 1016,5 - 0,0
16.04.2019 18:00:00 16,7 -0,5 13 7 E 1016,2 10 0,0
16.04.2019 17:00:00 17,3 -0,4 13 7 ENE 1016,1 10 0,0
16.04.2019 16:00:00 18,1 0,2 11 6 E 1016,1 10 0,0
16.04.2019 15:00:00 18,0 0,6 11 6 E 1016,4 10 0,0
16.04.2019 14:00:00 18,3 0,9 8 4 NE 1016,7 10 0,0
16.04.2019 13:00:00 17,4 1,0 2 1 - 1017,1 10 0,0
16.04.2019 12:00:00 16,6 2,6 4 2 - 1017,6 10 0,0
16.04.2019 11:00:00 16,0 2,7 0 0 N 1017,8 10 0,0
16.04.2019 10:00:00 14,3 4,0 0 0 N 1017,7 10 0,0
16.04.2019 09:00:00 11,5 4,5 2 1 SE 1018,0 - 0,0
16.04.2019 08:00:00 8,7 3,5 - - - 1017,8 - 0,0
16.04.2019 07:00:00 6,5 3,1 4 2 ESE 1017,4 - 0,0
16.04.2019 06:00:00 6,9 3,1 4 2 SO 1016,9 - 0,0
16.04.2019 05:00:00 7,2 3,3 7 4 SSE 1017,1 - 0,0
16.04.2019 04:00:00 7,5 3,7 6 3 S 1017,3 - 0,0
16.04.2019 03:00:00 8,1 4,1 7 4 S 1017,2 - 0,0
16.04.2019 02:00:00 8,6 4,2 4 2 SSO 1017,5 - 0,0
16.04.2019 01:00:00 8,7 4,5 4 2 SSO 1017,5 - 0,0
16.04.2019 00:00:00 9,3 4,5 8 4 SSE 1017,4 - 0,0
15.04.2019 23:00:00 9,9 4,5 6 4 SSO 1017,4 - 0,0
15.04.2019 22:00:00 11,3 4,7 4 2 SSO 1017,2 - 0,0
15.04.2019 21:00:00 13,5 3,6 1 0 S 1017,0 - 0,0
15.04.2019 20:00:00 14,7 1,9 1 1 ENE 1016,4 - 0,0
15.04.2019 19:00:00 15,6 2,4 6 4 NE 1016,3 - 0,0
15.04.2019 18:00:00 16,1 2,5 5 3 - 1016,1 10 0,0
15.04.2019 17:00:00 16,1 2,8 11 6 NNE 1016,1 10 0,0
15.04.2019 16:00:00 15,7 3,5 9 5 NNE 1016,3 10 0,0
15.04.2019 15:00:00 15,3 4,4 15 8 NNE 1016,4 10 0,0
15.04.2019 14:00:00 15,1 4,5 11 6 NNO 1016,8 10 0,0
15.04.2019 13:00:00 14,5 5,0 9 5 NO 1016,8 10 0,0
15.04.2019 12:00:00 13,5 8,0 5 3 - - 10 0,0
15.04.2019 11:00:00 12,6 6,8 15 8 NO 1017,2 10 0,0
15.04.2019 10:00:00 11,2 6,5 21 11 NO 1016,9 10 0,0
15.04.2019 09:00:00 10,0 6,2 13 7 ONO 1016,5 - 0,0

tt = Temperatura
td = dewpoint
ff = velocità del vento
dd = direzione del vento
ppp = reduced air pressure
vv = visibility
rr = precipitazioni

Stazioni seguenti

WeatherPro
AMSI
MeteoEarth